Погода в Никольском

Россия / Ярославская область     57˚31′06″N   40˚21′55″E
темп.,
°C
ветер,
м/с
пор.,
м/с
влажн.,
%
обл.,
%
осадки,
мм/ч
давл.,
гПа
погр.,
м
16 января, сб
сб1600:00−15˚с4796100 0.1 1012248
03:00−15˚ссв4896100 1.4 1010290
06:00−15˚с5996100 0.9 1008379
09:00−15˚с61094100 1.6 1007420
12:00−16˚с71293100 0.1 1005464
15:00−16˚с71293100 0.3 1005522
18:00−17˚с61194100 0.2 1005567
21:00−18˚с5995100 0.3 1006483
17 января, вс
вс1700:00−20˚с5996100 0.1 1007357
03:00−25˚ссз479797 0.1 1009130
06:00−26˚ссз359882 0.0 101083
09:00−27˚ссз349781 0.0 101362
12:00−22˚ссз359611 0.0 1015176
15:00−21˚сз23965 0.0 101558
18:00−23˚сз239620 0.0 101720
21:00−24˚зсз229624 0.0 101820
18 января, пн
пн1800:00−24˚з23970 0.0 101820
03:00−24˚з22957 0.0 101820
06:00−23˚юз23920 0.0 101820
09:00−23˚юз349415 0.0 101850
12:00−18˚зюз249540 0.0 1018137
15:00−18˚юз229656 0.0 101829
18:00−18˚юз239762 0.1 101885
21:00−20˚зюз129970 0.1 101820
19 января, вт
вт1900:00−19˚ююз129997 0.1 101920
03:00−19˚юз129797 0.1 101920
06:00−19˚св119891 0.1 101820
09:00−20˚юв129992 0.1 101920
12:00−16˚юв009393 0.1 1019147
15:00−17˚св119695 0.1 101920
18:00−21˚св1110095 0.0 102020
21:00−22˚ююв1110091 0.0 102120
20 января, ср
ср2000:00−22˚юз1110063 0.0 102220
03:00−22˚юз1110047 0.0 102220
06:00−22˚юз129944 0.0 102320
09:00−21˚ююз239852 0.0 102320
12:00−17˚ююз349563 0.0 1024162
15:00−16˚ю359576 0.0 1023128
18:00−17˚ю479693 0.0 102392
21:00−16˚ююз5109496 0.0 1023203